Location: Unspecified
(0.0000°N, 0.0000°E)
Time: 03:11:00
(UTC+00:00)

Hubble Space Telescope - Pass Details

Date: 02 February 2021
Orbit: 535 x 539 km, 28.5° (Epoch: 07 March)

Event Time Altitude Azimuth Distance (km) Brightness Sun altitude
Rises 05:28:16 0° 214° (SW) 2,674 4.1 -10.9°
Reaches altitude 10° 05:31:09 10° 194° (SSW) 1,782 3.5 -10.2°
Maximum altitude 05:33:54 17° 152° (SSE) 1,379 3.5 -9.5°
Drops below altitude 10° 05:36:40 10° 109° (ESE) 1,778 5.1 -8.9°
Sets 05:39:32 0° 89° (E) 2,665 6.0 -8.2°
